GFSNW_700_temp_270.txt.gz
Temp
-4 -3 -2 -1 0 0 0 -0 -0 -0 -1 -1 -1 0 0 0 1 2 3 3 4 4 4 4 4 4 5 5 5 5 6 6 6 7 6 6 6 7 7 7 7 5 5 6
-3 -3 -3 -2 -0 1 -0 -0 -0 -0 -1 -1 -0 0 0 0 1 1 2 3 3 4 4 4 4 5 5 5 5 5 5 5 6 5 5 6 6 5 6 6 6 6 6 7
-4 -4 -3 -3 -2 -0 -1 -1 -1 -1 -1 -0 0 0 0 0 1 1 2 3 2 3 3 4 4 4 4 4 5 5 5 5 6 7 6 5 5 5 5 5 5 6 5 6
-4 -4 -3 -3 -2 -2 -1 -1 -1 -1 -1 -0 0 0 1 0 0 1 1 2 2 2 3 3 3 3 3 3 4 4 4 4 4 5 5 4 4 4 4 4 5 4 5 5
-4 -4 -4 -4 -3 -2 -2 -1 -1 -1 0 -0 1 0 0 1 1 1 1 1 2 2 2 2 2 2 2 2 3 3 3 3 3 3 3 3 3 3 3 3 3 3 4 4
-4 -3 -3 -4 -3 -2 -2 -1 -1 -0 -0 0 -0 0 1 0 1 0 1 0 -0 1 2 1 0 1 1 1 2 2 2 3 2 3 2 2 3 3 3 3 3 3 3 4
-5 -4 -3 -4 -4 -2 -2 -2 -2 -1 -1 -1 0 0 -0 0 1 1 1 0 -0 1 1 -0 -1 -0 0 1 1 2 2 2 2 2 1 2 3 3 3 3 2 3 3 3
-5 -4 -4 -4 -4 -3 -3 -2 -2 -2 -1 -1 -1 -0 0 -0 -0 -1 -0 0 0 -0 0 -0 -1 -1 -0 -0 0 0 1 1 1 1 2 3 2 2 3 2 3 3 3 2
-5 -5 -4 -4 -4 -4 -2 -2 -3 -2 -2 -1 0 -1 -1 -0 -0 -0 -0 -1 -1 -1 -1 -1 -1 0 1 -0 0 0 1 1 0 -0 1 3 2 2 2 2 2 2 2 2
-7 -5 -4 -4 -4 -4 -3 -2 -2 -2 -2 -2 -1 -1 -1 -1 -1 -0 -1 -1 -2 -2 -1 -1 -1 -0 0 0 0 0 0 0 -0 -0 -0 0 2 2 2 1 2 2 2 2
-7 -6 -5 -4 -4 -4 -4 -2 -3 -2 -2 -2 -2 -2 -1 -1 -0 1 -1 -3 -3 -2 -2 -1 -1 -1 -0 -0 1 1 1 0 -0 -0 -1 -0 2 1 1 1 1 1 1 1
-7 -6 -5 -4 -4 -4 -3 -3 -3 -2 -2 -2 -2 -2 -1 -2 -1 -1 -2 -2 -0 -1 -2 -2 -2 -1 -1 -1 -0 -0 0 1 1 1 2 2 1 2 1 1 1 1 0 -0
-7 -7 -6 -4 -4 -4 -4 -3 -3 -3 -3 -2 -2 -2 -2 -2 -3 -4 -3 -2 -1 -0 -1 -2 -2 -2 -2 -1 -1 -1 -0 0 0 0 1 1 0 0 0 0 -0 -1 -1 -0
-7 -7 -6 -5 -5 -4 -4 -3 -3 -3 -3 -3 -4 -3 -4 -4 -4 -4 -3 -2 -1 -1 -2 -2 -2 -2 -2 -1 -1 -1 -1 -1 -0 -0 -0 -0 -0 -0 -0 -1 -1 -0 0 -0
-8 -8 -7 -5 -5 -4 -4 -4 -4 -4 -3 -4 -5 -5 -5 -4 -3 -3 -2 -3 -3 -2 -3 -3 -3 -3 -3 -3 -2 -2 -2 -1 -1 -1 -1 -2 -1 -2 -2 -1 -0 -0 -0 -0
-8 -8 -6 -6 -5 -5 -4 -4 -4 -5 -4 -5 -6 -5 -5 -5 -4 -4 -4 -4 -4 -4 -4 -3 -3 -4 -3 -3 -3 -3 -3 -3 -2 -2 -3 -2 -2 -1 -1 -1 -1 -0 -0 -1
-7 -8 -7 -6 -5 -5 -5 -5 -4 -5 -5 -5 -5 -6 -6 -5 -5 -4 -5 -5 -4 -4 -4 -4 -4 -4 -4 -3 -3 -3 -3 -2 -2 -2 -2 -2 -1 -1 -1 -1 -0 -1 -0 -1
-8 -8 -6 -6 -6 -6 -5 -5 -5 -5 -6 -5 -6 -6 -6 -6 -5 -6 -5 -5 -5 -5 -5 -4 -5 -5 -4 -4 -4 -1 -1 -2 -3 -2 -2 -3 -2 -2 -2 -2 -2 -1 -1 -1
-8 -7 -5 -7 -7 -6 -5 -5 -5 -5 -5 -5 -5 -5 -6 -6 -5 -6 -6 -6 -6 -5 -5 -5 -5 -5 -4 -3 -1 -1 -2 -3 -3 -2 -2 -3 -2 -2 -2 -2 -2 -1 -1 -2
-9 -8 -8 -7 -6 -6 -6 -6 -6 -6 -6 -5 -5 -4 -4 -5 -6 -6 -7 -7 -6 -6 -6 -6 -6 -4 -2 -2 -2 -2 -2 -2 -2 -2 -2 -2 -2 -2 -2 -3 -3 -3 -3 -3
-10 -9 -7 -7 -6 -6 -6 -7 -7 -7 -6 -6 -5 -5 -4 -5 -6 -7 -7 -7 -7 -7 -6 -6 -6 -3 -2 -3 -2 -2 -2 -1 -2 -2 -2 -3 -3 -3 -3 -4 -4 -4 -4 -4
-9 -8 -7 -7 -7 -7 -7 -7 -7 -6 -5 -5 -6 -6 -6 -6 -7 -8 -7 -7 -6 -7 -6 -6 -5 -3 -2 -3 -3 -2 -2 -1 -1 -2 -3 -4 -4 -4 -4 -4 -4 -4 -5 -4
-9 -7 -8 -7 -8 -8 -8 -7 -5 -4 -4 -4 -5 -6 -6 -7 -7 -7 -7 -6 -6 -7 -7 -6 -4 -4 -3 -3 -3 -3 -3 -3 -3 -4 -4 -5 -5 -5 -5 -4 -5 -5 -5 -5
-8 -8 -8 -7 -8 -7 -5 -3 -2 -2 -3 -3 -5 -5 -6 -7 -6 -6 -6 -7 -6 -6 -7 -5 -5 -4 -4 -4 -4 -4 -4 -4 -4 -4 -4 -5 -5 -5 -5 -5 -5 -5 -6 -6
-8 -8 -7 -7 -5 -4 -3 -3 -3 -3 -3 -3 -6 -6 -6 -7 -6 -6 -7 -7 -6 -6 -5 -4 -5 -5 -4 -4 -4 -4 -4 -5 -5 -5 -6 -6 -6 -5 -5 -5 -6 -6 -6 -5
-7 -7 -6 -5 -5 -4 -4 -4 -4 -4 -5 -5 -5 -7 -8 -7 -6 -6 -5 -6 -5 -3 -4 -5 -5 -5 -5 -5 -5 -5 -6 -6 -6 -6 -6 -6 -5 -5 -5 -5 -6 -6 -6 -5
-7 -7 -5 -5 -5 -3 -4 -5 -4 -5 -4 -5 -7 -5 -7 -6 -6 -6 -5 -4 -5 -5 -5 -5 -6 -6 -6 -6 -6 -6 -6 -6 -5 -6 -6 -5 -5 -5 -5 -6 -6 -6 -6 -5

GFSNW_700_temp_273.txt.gz
Temp
-4 -3 -2 -3 -2 -2 -2 -1 -0 0 0 -1 -1 -1 -0 -0 0 1 2 3 4 5 5 6 7 6 6 5 5 6 7 8 7 8 7 7 8 9 8 8 9 8 8 8
-4 -3 -3 -2 -3 -3 -2 -1 -1 -1 -0 -0 -0 -0 -0 0 1 1 1 3 4 4 5 5 5 5 5 6 6 6 6 7 6 6 7 7 7 8 8 8 7 8 7 8
-5 -4 -4 -3 -3 -2 -2 -1 -1 -1 -1 -0 -0 -0 -0 -0 0 1 1 2 2 3 3 4 4 4 5 5 5 5 6 6 7 7 7 7 7 7 7 7 7 7 8 8
-4 -5 -3 -3 -3 -3 -2 -1 -1 -1 -0 -0 -1 -1 -0 -0 0 0 1 1 3 4 4 4 4 4 4 4 5 5 5 6 6 5 5 6 6 7 7 7 7 7 7 7
-5 -4 -4 -4 -3 -3 -3 -1 -1 -1 0 -0 -1 -1 -0 1 0 1 1 2 2 3 3 4 4 4 4 4 4 4 4 4 5 4 4 5 5 5 5 6 6 6 6 6
-6 -5 -4 -4 -3 -3 -2 -2 -2 -1 -0 -0 -1 -0 1 -0 0 1 1 1 1 1 2 2 2 2 3 3 3 3 4 4 4 4 4 4 4 5 5 5 6 5 5 6
-7 -6 -5 -3 -3 -3 -3 -2 -2 -1 -1 -1 0 -0 -0 0 1 1 1 1 1 0 0 1 2 1 1 2 2 2 3 4 3 3 4 3 5 5 4 4 5 5 4 4
-7 -6 -4 -3 -4 -3 -3 -2 -2 -2 -1 0 -0 -0 0 0 0 1 1 1 1 1 0 -0 0 0 0 1 1 1 2 3 2 3 4 5 5 4 4 3 4 4 4 3
-8 -7 -5 -4 -3 -4 -3 -3 -2 -1 -1 -1 -0 -0 0 0 0 -0 -0 -0 -0 -1 -1 -0 0 1 2 1 0 1 1 2 1 1 3 5 5 4 4 3 4 4 4 3
-8 -7 -5 -4 -4 -4 -3 -3 -3 -2 -2 -1 -1 -0 -0 -0 0 -0 0 -0 -0 -1 -1 -0 1 2 2 2 1 -0 0 0 1 1 2 2 4 3 3 2 4 3 3 2
-8 -7 -6 -5 -4 -4 -3 -3 -3 -3 -2 -2 -1 -1 -1 -0 -0 -0 -0 -1 -0 -1 -1 -1 0 1 2 2 2 1 1 1 0 1 1 0 2 2 3 3 2 2 2 1
-8 -7 -7 -7 -5 -4 -4 -4 -3 -3 -3 -2 -2 -2 -1 -1 -0 0 0 0 0 -0 -1 -1 -0 0 1 1 2 2 1 1 1 2 2 1 2 2 3 3 3 1 1 1
-8 -8 -7 -6 -4 -5 -4 -4 -3 -3 -3 -3 -2 -2 -2 -2 -1 -1 -0 -1 -1 -1 0 -0 -0 -0 0 1 1 2 1 1 2 2 2 1 1 1 1 1 1 1 1 0
-8 -8 -7 -6 -5 -4 -4 -4 -3 -3 -3 -3 -3 -2 -2 -1 -2 -1 -1 -1 -1 -2 -1 -1 -1 -1 -1 0 1 1 1 1 0 0 1 1 0 -0 -0 -0 -0 -0 -0 0
-9 -8 -7 -6 -6 -4 -4 -4 -4 -3 -3 -3 -2 -2 -2 -2 -2 -2 -1 -2 -2 -3 -2 -2 -2 -1 -1 -1 -1 -0 0 0 -0 -1 -0 -0 -0 -0 -0 -0 -1 -1 -1 -1
-10 -9 -8 -6 -6 -5 -5 -4 -4 -4 -3 -3 -4 -3 -3 -3 -3 -3 -3 -3 -4 -3 -3 -3 -2 -2 -2 -2 -1 -1 -1 -0 -1 -1 -1 -1 -1 -1 -1 -1 -1 -1 -1 -1
-9 -7 -7 -7 -7 -5 -5 -4 -4 -4 -3 -4 -4 -4 -4 -5 -4 -4 -4 -4 -4 -4 -3 -3 -3 -3 -3 -3 -2 -1 -1 -1 -2 -1 -2 -2 -2 -2 -1 -1 -1 -2 -2 -2
-10 -9 -8 -8 -7 -6 -5 -5 -5 -4 -4 -4 -4 -5 -5 -5 -5 -5 -5 -5 -4 -4 -4 -4 -4 -3 -3 -3 -2 -3 -2 -2 -2 -3 -3 -3 -3 -3 -2 -1 -3 -2 -2 -2
-10 -10 -8 -7 -7 -7 -6 -5 -4 -4 -4 -5 -5 -4 -5 -5 -5 -5 -5 -5 -5 -5 -5 -5 -5 -5 -4 -3 -3 -1 -2 -2 -3 -3 -3 -3 -3 -3 -3 -3 -3 -2 -2 -4
-11 -10 -9 -8 -6 -6 -6 -5 -5 -5 -6 -5 -5 -4 -4 -5 -5 -5 -6 -5 -6 -5 -6 -6 -6 -5 -4 -4 -1 -2 -2 -1 -1 -2 -2 -2 -1 -2 -2 -2 -2 -2 -2 -2
-11 -10 -9 -8 -7 -7 -6 -6 -6 -7 -6 -6 -6 -3 -2 -5 -6 -6 -6 -6 -6 -6 -6 -6 -6 -3 -2 -2 -2 -2 -1 -1 -1 -1 -1 -2 -2 -2 -2 -2 -2 -2 -3 -3
-10 -9 -9 -7 -7 -7 -7 -7 -7 -6 -6 -6 -5 -5 -5 -5 -6 -6 -6 -7 -6 -6 -7 -5 -4 -2 -2 -1 -1 -2 -1 -1 -1 -1 -1 -1 -2 -2 -2 -2 -3 -3 -3 -3
-11 -10 -9 -8 -8 -7 -8 -7 -6 -4 -4 -5 -5 -6 -6 -6 -6 -7 -6 -6 -6 -7 -6 -6 -4 -2 -2 -2 -2 -2 -2 -2 -2 -2 -2 -2 -2 -2 -2 -3 -4 -4 -4 -5
-10 -9 -9 -8 -8 -7 -5 -4 -3 -2 -2 -3 -4 -5 -7 -7 -6 -6 -6 -7 -7 -6 -7 -3 -2 -2 -3 -3 -2 -2 -2 -2 -2 -2 -2 -2 -2 -2 -4 -4 -5 -4 -4 -5
-10 -9 -8 -7 -5 -4 -5 -5 -3 -3 -2 -3 -6 -5 -5 -6 -5 -6 -7 -6 -6 -6 -4 -2 -2 -2 -2 -2 -2 -2 -2 -2 -2 -2 -2 -3 -3 -4 -5 -5 -5 -5 -5 -5
-9 -8 -8 -6 -5 -4 -3 -4 -3 -2 -4 -4 -4 -6 -7 -6 -5 -5 -5 -6 -5 -4 -3 -2 -2 -2 -2 -2 -2 -2 -2 -2 -3 -3 -4 -4 -5 -5 -5 -5 -5 -5 -5 -5
-9 -8 -6 -5 -3 -2 -4 -4 -3 -4 -3 -4 -5 -4 -6 -7 -5 -6 -6 -5 -5 -3 -2 -2 -3 -3 -3 -3 -3 -3 -3 -4 -4 -4 -5 -5 -5 -5 -5 -5 -6 -6 -6 -6

GFSNW_700_temp_276.txt.gz
Temp
-8 -7 -6 -4 -3 -2 -1 -1 -1 -0 -1 -1 -2 -1 1 1 0 2 2 3 4 5 4 6 6 8 7 7 7 7 8 6 7 8 8 9 9 9 9 9 9 9 9 8
-8 -7 -6 -5 -3 -3 -2 -1 -2 -1 -0 -2 -1 -1 -0 -0 -0 1 2 2 3 4 5 4 5 6 5 6 6 7 7 7 5 5 8 8 8 9 9 9 9 7 7 8
-7 -7 -7 -5 -3 -3 -3 -2 -2 -2 -2 -1 0 -0 -0 -0 1 1 2 2 3 4 3 4 4 5 4 6 5 6 6 7 6 3 5 7 8 9 8 8 7 7 7 8
-8 -7 -4 -5 -4 -3 -2 -2 -2 -1 -2 -1 -0 0 -0 -0 1 1 1 2 3 3 5 3 5 5 4 5 6 6 6 6 6 5 5 6 7 8 8 8 7 8 7 8
-8 -7 -6 -5 -4 -3 -3 -2 -3 -2 -0 -1 -1 -0 -0 -0 -0 1 1 2 3 3 4 4 4 4 3 4 5 5 5 5 5 4 5 6 5 6 5 7 7 8 8 8
-8 -7 -6 -5 -4 -4 -3 -2 -2 -2 -2 -1 -1 1 2 -0 0 1 2 2 2 3 4 3 4 4 4 4 4 5 5 5 5 4 5 6 6 6 6 7 7 7 7 7
-8 -8 -7 -6 -4 -4 -3 -3 -2 -2 -2 -1 0 0 1 -0 0 1 1 2 2 2 2 2 2 3 3 3 4 4 4 4 4 4 5 4 5 6 6 6 6 6 7 7
-7 -7 -8 -6 -5 -4 -4 -3 -2 -3 -2 -1 -1 -1 1 -1 0 1 1 1 1 1 1 2 2 2 3 2 3 3 3 4 4 3 4 5 6 6 6 5 5 5 5 5
-8 -7 -8 -7 -6 -4 -4 -3 -3 -2 -2 -2 -1 -1 -0 -0 -0 -0 0 0 1 1 1 2 1 1 2 2 2 2 2 3 3 3 3 5 6 6 5 4 4 5 5 4
-8 -8 -8 -8 -6 -5 -4 -3 -3 -2 -2 -2 -1 -1 -0 -0 -0 -0 -0 0 1 0 0 0 0 1 2 3 2 1 2 2 2 2 2 3 5 4 5 4 4 5 5 4
-8 -8 -7 -6 -7 -5 -4 -4 -3 -3 -3 -2 -2 -0 0 -0 -0 -1 -0 0 -0 0 0 -0 0 2 3 3 3 1 1 1 1 1 2 1 4 3 4 4 4 4 3 2
-9 -8 -7 -7 -5 -6 -4 -4 -4 -4 -3 -3 -1 -1 -0 0 -0 -0 0 -0 0 0 -0 0 1 2 3 3 3 3 1 1 1 2 2 3 3 3 3 2 2 2 2 1
-8 -8 -8 -8 -7 -6 -5 -4 -3 -3 -3 -2 -2 -2 -1 -0 -0 -1 -0 -1 -0 0 1 0 1 1 2 2 3 3 2 2 2 2 2 2 2 2 3 2 2 2 1 1
-9 -9 -8 -8 -8 -6 -5 -4 -3 -4 -3 -3 -2 -2 -2 -1 -1 -1 -1 -1 -1 -0 -1 -1 -0 0 1 2 2 2 3 2 2 2 2 2 1 1 1 1 1 0 0 0
-9 -9 -8 -8 -8 -6 -5 -4 -4 -4 -4 -3 -2 -1 -2 -2 -1 -2 -1 -1 -1 -1 -1 -1 -1 -0 0 1 1 1 2 2 2 2 2 1 1 1 0 0 0 0 -0 -0
-10 -9 -9 -8 -8 -6 -6 -5 -4 -4 -4 -2 -2 -2 -3 -2 -2 -2 -1 -1 -1 -1 -1 -1 -1 -1 -1 0 0 1 1 1 1 1 1 1 0 0 -0 -0 -1 -1 -1 -1
-10 -10 -9 -9 -8 -7 -6 -5 -5 -4 -4 -4 -3 -3 -3 -2 -3 -2 -3 -2 -2 -2 -2 -2 -1 -1 -1 -1 1 0 0 0 0 0 -0 -0 -1 -1 -1 -1 -1 -2 -2 -2
-10 -10 -9 -8 -8 -7 -6 -5 -4 -5 -4 -4 -3 -3 -3 -3 -3 -3 -3 -2 -2 -2 -2 -2 -2 -2 -2 -2 0 -0 -1 -1 -0 -0 -1 -1 -1 -2 -2 -2 -2 -1 -2 -2
-11 -10 -9 -8 -8 -7 -5 -5 -5 -4 -4 -4 -3 -3 -3 -4 -4 -3 -3 -3 -3 -3 -2 -2 -2 -2 -2 0 0 -1 -1 -0 -1 -1 -2 -2 -2 -2 -2 -2 -1 -1 -0 -0
-11 -10 -10 -9 -7 -7 -6 -6 -6 -4 -4 -4 -4 -3 -3 -3 -3 -3 -3 -4 -4 -4 -4 -4 -4 -2 -1 -1 -2 -2 -1 -2 -2 -1 -2 -2 -2 -2 -1 -1 -1 -1 -1 -1
-11 -11 -10 -9 -8 -7 -7 -6 -6 -6 -5 -4 -4 -2 -1 -3 -4 -4 -5 -5 -5 -5 -5 -5 -4 -2 -0 -1 -3 -2 -2 -3 -1 -1 -2 -2 -1 -1 -1 -1 -1 -1 -1 -1
-10 -10 -9 -9 -8 -7 -7 -7 -7 -6 -5 -4 -3 -2 -3 -4 -5 -5 -5 -5 -5 -5 -5 -5 -3 1 -0 -1 -0 -1 -3 -2 -1 -1 -2 -1 -1 -1 -1 -1 -1 -1 -1 -2
-11 -11 -10 -9 -8 -8 -7 -7 -6 -6 -4 -4 -3 -4 -4 -5 -5 -5 -5 -5 -5 -6 -6 -5 -2 -2 -2 -1 -1 -3 -3 -2 -2 -2 -1 -1 -1 -1 -1 -2 -2 -2 -2 -3
-10 -10 -10 -9 -8 -8 -6 -5 -4 -3 -3 -4 -4 -3 -5 -5 -5 -6 -6 -6 -6 -6 -6 -3 -1 -1 -1 -2 -2 -2 -2 -2 -2 -1 -2 -2 -2 -2 -2 -2 -2 -3 -3 -4
-10 -10 -10 -9 -8 -6 -5 -5 -4 -5 -5 -3 -6 -6 -6 -6 -6 -6 -6 -7 -5 -5 -3 -2 -1 -1 -2 -2 -2 -2 -2 -2 -2 -2 -2 -2 -2 -2 -3 -3 -3 -4 -4 -4
-10 -10 -8 -7 -7 -6 -5 -5 -5 -5 -5 -5 -5 -6 -6 -5 -4 -5 -4 -5 -4 -3 -2 -1 -1 -1 -1 -1 -2 -2 -2 -2 -2 -2 -2 -2 -3 -3 -3 -3 -4 -4 -4 -5
-10 -9 -9 -8 -7 -7 -6 -5 -4 -5 -4 -4 -5 -4 -5 -4 -4 -4 -3 -4 -3 -2 -1 -1 -1 -1 -1 -1 -2 -2 -2 -2 -2 -2 -3 -3 -3 -3 -4 -4 -4 -5 -5 -6

GFSNW_700_temp_279.txt.gz
Temp
-7 -7 -7 -7 -7 -6 -7 -7 -5 -2 -2 -2 -1 -1 1 2 2 2 3 4 5 4 6 6 6 7 8 7 7 8 8 7 8 8 8 9 9 9 9 9 8 8 8 8
-7 -7 -7 -7 -7 -8 -7 -6 -5 -3 -2 -2 -1 -2 1 1 -0 0 2 3 4 4 4 4 5 6 7 7 7 7 8 7 6 7 7 8 8 8 9 9 8 7 6 6
-8 -7 -8 -7 -7 -8 -7 -6 -4 -3 -2 -1 -1 -1 -0 -1 -1 -0 1 3 3 3 4 4 5 5 5 5 6 7 7 7 6 5 7 7 7 8 9 9 8 7 8 7
-8 -8 -8 -7 -8 -7 -7 -6 -4 -3 -2 -2 -1 -1 -1 -1 -1 -0 0 2 2 3 3 4 4 5 4 5 6 6 6 6 6 6 6 6 5 6 5 8 7 7 7 7
-9 -9 -9 -8 -8 -7 -7 -7 -5 -3 -2 -2 -1 -1 -2 -1 0 -0 1 2 2 3 3 3 4 3 4 4 6 6 5 6 5 5 5 4 6 6 6 6 6 6 6 7
-9 -9 -9 -9 -8 -8 -7 -6 -4 -4 -3 -2 -2 -2 -0 -1 -0 -1 1 2 2 2 3 4 4 3 4 5 5 6 6 6 5 4 5 4 3 5 6 6 6 6 6 7
-9 -9 -9 -9 -8 -8 -7 -6 -4 -3 -3 -2 -2 -2 -1 -1 -0 -0 1 1 1 2 4 3 4 4 4 4 5 4 5 5 5 4 4 1 5 6 6 6 6 6 6 7
-10 -10 -9 -8 -8 -8 -7 -6 -5 -4 -3 -3 -2 -2 -1 -1 -0 -0 0 2 1 2 2 2 2 2 2 3 4 4 4 4 4 4 3 5 5 6 6 6 6 6 6 6
-10 -10 -9 -9 -9 -8 -7 -6 -5 -4 -3 -2 -1 -2 -1 -1 -0 -0 1 1 1 1 1 2 2 1 2 2 3 3 4 4 4 3 3 2 5 6 6 6 5 6 5 5
-10 -9 -9 -9 -9 -9 -7 -6 -5 -4 -2 -3 -3 -2 -1 -1 -1 0 -0 1 1 1 1 0 2 3 3 3 3 3 3 3 4 3 3 4 4 5 5 5 5 6 5 5
-10 -9 -9 -9 -9 -9 -7 -5 -5 -4 -3 -2 -2 -2 -2 -1 -1 1 0 0 0 0 1 1 3 3 3 3 3 3 2 2 3 2 2 2 4 4 4 5 5 5 4 4
-10 -10 -10 -9 -8 -8 -8 -7 -6 -5 -4 -3 -2 -2 -2 -1 -1 0 -0 0 0 0 0 0 2 2 2 3 3 2 2 3 3 3 2 3 4 4 4 4 4 4 3 3
-10 -10 -9 -9 -8 -8 -7 -6 -5 -5 -3 -3 -3 -2 -1 -2 -1 -1 -1 -0 -0 0 1 1 1 2 3 3 3 3 2 3 3 3 3 3 3 3 3 3 3 3 3 2
-10 -10 -9 -9 -8 -7 -6 -7 -5 -4 -4 -4 -3 -3 -2 -2 -2 -1 -1 -0 -0 -0 0 0 0 1 2 3 3 3 3 3 3 3 3 3 2 2 3 2 2 2 2 1
-10 -10 -9 -9 -8 -8 -7 -6 -5 -5 -4 -4 -3 -3 -2 -1 -2 -1 -1 -0 -0 -1 -0 -0 -0 -0 2 3 3 3 3 3 3 3 2 2 2 2 2 2 2 1 1 0
-10 -10 -10 -9 -9 -8 -7 -7 -5 -4 -4 -3 -4 -2 -2 -2 -2 -2 -1 -1 -1 -1 -1 -1 -1 -0 1 1 2 2 3 3 2 2 2 2 2 1 1 1 0 0 -0 -0
-10 -10 -10 -10 -9 -8 -7 -6 -6 -4 -4 -4 -4 -3 -2 -3 -3 -3 -2 -2 -2 -1 -2 -1 -1 -1 -1 -0 1 2 3 2 2 2 2 1 1 1 1 0 0 -0 -0 -0
-11 -11 -10 -10 -9 -8 -6 -6 -5 -4 -4 -4 -4 -4 -3 -3 -3 -2 -2 -1 -2 -1 -2 -1 -1 -1 -1 0 0 1 2 2 2 1 1 1 0 1 1 0 -0 -1 -1 -1
-11 -10 -10 -9 -8 -7 -6 -6 -6 -5 -5 -4 -4 -4 -3 -3 -3 -2 -2 -2 -2 -2 -2 -2 -1 -1 -0 0 1 2 1 1 1 1 1 1 1 0 0 -1 -1 -1 -1 -0
-11 -11 -10 -9 -8 -7 -7 -7 -7 -6 -5 -4 -3 -3 -3 -3 -3 -2 -3 -3 -3 -3 -2 -2 -1 -0 0 1 2 3 2 1 1 1 -0 -0 -0 -1 -2 -1 -0 -1 -1 -1
-11 -11 -11 -9 -9 -8 -8 -7 -6 -6 -5 -4 -4 -3 -2 -3 -3 -3 -3 -4 -4 -4 -3 -3 -2 1 2 2 2 2 1 1 0 -1 -1 -1 -2 -2 -1 -0 -1 -1 -1 -1
-11 -11 -11 -9 -9 -8 -7 -7 -6 -6 -5 -4 -3 -3 -3 -3 -3 -4 -4 -4 -4 -4 -3 -3 -1 3 3 2 2 1 0 -1 -1 -1 -1 -1 -1 -1 -1 -1 -1 -1 -1 -1
-11 -11 -11 -10 -9 -8 -8 -7 -6 -5 -5 -4 -3 -4 -4 -4 -4 -4 -3 -4 -5 -4 -4 -3 2 2 2 2 2 2 -0 -2 -2 -1 -1 -1 -1 -1 -1 -1 -1 -1 -1 -1
-12 -10 -10 -10 -9 -8 -6 -4 -4 -3 -4 -5 -4 -3 -4 -4 -4 -5 -5 -5 -4 -5 -4 1 2 1 2 1 1 0 -1 -2 -2 -1 -1 -1 -1 -1 -1 -1 -2 -2 -2 -2
-11 -10 -10 -9 -8 -7 -7 -6 -5 -5 -5 -5 -5 -5 -5 -5 -5 -5 -5 -5 -4 -3 -1 1 1 1 1 0 0 -0 -1 -1 -1 -1 -1 -1 -1 -1 -2 -2 -2 -3 -3 -4
-11 -10 -9 -8 -7 -7 -6 -6 -5 -5 -5 -5 -5 -5 -5 -5 -4 -3 -3 -4 -2 -0 0 -0 0 1 0 -0 0 -1 -1 -1 -1 -1 -1 -2 -2 -2 -3 -3 -4 -4 -4 -4
-11 -10 -8 -7 -7 -7 -6 -5 -5 -5 -5 -5 -5 -4 -5 -4 -4 -4 -3 -2 -1 -1 1 -0 0 0 0 -0 -1 -1 -2 -2 -2 -2 -2 -2 -2 -3 -4 -4 -4 -4 -4 -5